Powrót do katalogu

STARLINK-32688

AktywnyŁącznośćVLEO
NORAD 62193·PAYLOAD·🇺🇸 United States

Wystrzelony Dec 4, 2024 z Cape Canaveral Space Force Station

Loading…

Następne Przeloty (najbliższe 24 godziny)

TLE

ŚwieżeSource: CelesTrak SupGP

Epoka: Sep 14, 2026, 22:23 UTC

1 62193C 24229B   26257.93312500  .00028035  00000+0  10158-2 0  2576
2 62193  43.0016 282.0358 0001717 266.1224  69.5473 15.27552762    11

Śledź STARLINK-32688 w czasie rzeczywistym z AllMySat

Download on the App Store